sat.trackr.live / text

‹ back to catalog

STARLINK-3677

NORAD 51970 · 2022-025Q

PAYLOAD ACTIVE UNKNOWN

§ Identity

Operator
Country
US
Launch date
2022-03-09
Launch site
AFETR
Launch vehicle
Mass (kg)
RCS (m²)

Purposes: comms

External: N2YO · Heavens-Above · Gunter

§ Orbital elements

Epoch: 2026-09-19T12:28:53.714496Z

Period
94.01 min
Inclination
53.1594°
Eccentricity
0.0001317
Mean motion
15.31698176 rev/d
Perigee alt
469.8 km
Apogee alt
471.6 km
Semi-major
6,848.9 km
B*
9.8558e-6
RAAN
215.4216°
Arg perigee
82.4570°
Mean anomaly
277.6581°
Rev number
25,052

§ Raw data

STARLINK-36771 51970U 22025Q   26262.52006614 -.00000059  00000+0  98558-5 0  99992 51970  53.1594 215.4216 0001317  82.4570 277.6581 15.31698176250527

JSON: /api/v1/satellites/51970 · /tle

For live sub-satellite position, see the globe view (requires WebGL).

§ Visibility from observer

Set your observer location to see the next 7 days of passes ≥ 10°. The values pass through the URL so the page stays shareable.

No JS? Fill the form by hand. The geolocation button needs JavaScript.